Stations météo

réclame
Mon MeteoGroup
Sete, France (7641): Température de l'air & dewpoint: 10.07.2019 04:00:00 - 16.07.2019 04:00:00 (CEST)Sete, France (7641): Vitesse du vent & gusts: 10.07.2019 04:00:00 - 16.07.2019 04:00:00 (CEST)Sete, France (7641): Direction du vent: 10.07.2019 04:00:00 - 16.07.2019 04:00:00 (CEST)Sete, France (7641): reduced air pressure: 10.07.2019 04:00:00 - 16.07.2019 04:00:00 (CEST)Sete, France (7641): visibility: 10.07.2019 04:00:00 - 16.07.2019 04:00:00 (CEST)Sete, France (7641): Quantités de précipitations: 10.07.2019 04:00:00 - 16.07.2019 04:00:00 (CEST)
Date & Time tt [°C] td [°C] ff [km/h] ff [knt] fx [km/h] fx [knt] dd ppp [hPa] vv [km] rr [mm]
16.07.2019 04:00:00 23,6 8,8 16 9 29 16 NNW 1014,5 - 0,0
16.07.2019 03:00:00 23,3 9,3 16 9 26 14 NNW 1014,5 - 0,0
16.07.2019 02:00:00 23,2 9,9 14 8 24 13 NNW 1014,4 - 0,0
16.07.2019 01:00:00 24,0 9,6 13 7 23 12 N 1014,2 - 0,0
16.07.2019 00:00:00 24,6 10,5 9 5 21 11 NNW 1014,1 - 0,0
15.07.2019 23:00:00 25,7 8,7 11 6 21 12 NNW 1013,6 - 0,0
15.07.2019 22:00:00 26,8 10,5 11 6 33 18 N 1012,7 - 0,0
15.07.2019 21:00:00 28,2 9,9 11 6 39 21 N 1011,7 - 0,0
15.07.2019 20:00:00 29,2 8,8 21 11 51 28 N 1010,8 20 0,0
15.07.2019 19:00:00 30,1 9,0 24 13 49 26 N 1010,1 - 0,0
15.07.2019 18:00:00 30,5 8,2 28 15 46 25 N 1009,8 - 0,0
15.07.2019 17:00:00 30,6 8,9 18 10 51 28 N 1009,7 - 0,0
15.07.2019 16:00:00 30,6 8,3 24 13 50 27 N 1009,5 - 0,0
15.07.2019 15:00:00 30,5 8,2 24 13 51 28 N 1009,2 - 0,0
15.07.2019 14:00:00 29,7 8,7 21 11 45 25 NNW 1009,3 20 0,0
15.07.2019 13:00:00 29,3 7,8 18 10 46 25 NW 1009,4 - 0,0
15.07.2019 12:00:00 27,8 7,6 14 7 49 26 NW 1009,7 - 0,0
15.07.2019 11:00:00 26,5 7,5 13 7 39 21 NNW 1010,4 - 0,0
15.07.2019 10:00:00 25,1 8,1 16 9 40 22 NW 1010,7 - 0,0
15.07.2019 09:00:00 23,2 8,8 16 9 42 23 NW 1010,8 - 0,0
15.07.2019 08:00:00 21,7 9,9 19 11 46 25 NW 1010,8 - 0,0
15.07.2019 07:00:00 21,0 9,9 18 10 32 17 NW 1010,7 - 0,0
15.07.2019 06:00:00 21,0 10,2 16 8 37 20 NNW 1010,5 - 0,0
15.07.2019 05:00:00 21,9 10,4 20 11 37 20 NW 1010,5 20 0,0
15.07.2019 04:00:00 22,5 10,3 12 6 27 15 NW 1010,6 - 0,0
15.07.2019 03:00:00 23,4 10,1 15 8 31 17 NNW 1010,6 - 0,0
15.07.2019 02:00:00 24,3 10,9 13 7 29 16 N 1010,4 - 0,0
15.07.2019 01:00:00 25,4 10,0 15 8 29 15 N 1010,3 - 0,0
15.07.2019 00:00:00 26,4 10,9 9 5 24 13 N 1010,0 - 0,0
14.07.2019 23:00:00 27,1 11,6 10 6 16 8 NNE 1009,6 - 0,0
14.07.2019 22:00:00 26,8 15,2 10 5 24 13 NNE 1008,9 - 0,0
14.07.2019 21:00:00 28,0 11,1 12 6 23 12 N 1007,6 - 0,0
14.07.2019 20:00:00 25,9 16,4 10 5 27 14 SSW 1007,4 20 0,0
14.07.2019 19:00:00 27,4 15,4 17 9 29 16 SSW 1007,6 - 0,0
14.07.2019 18:00:00 30,3 9,8 15 8 25 14 S 1007,7 - 0,0
14.07.2019 17:00:00 29,2 11,3 13 7 26 14 S 1008,1 20 0,0
14.07.2019 16:00:00 29,0 14,8 14 8 30 16 S 1008,5 - 0,0
14.07.2019 15:00:00 27,1 16,1 19 11 35 19 SSW 1008,9 - 0,0
14.07.2019 14:00:00 31,1 9,9 11 6 24 13 S 1009,2 - 0,0
14.07.2019 13:00:00 29,9 9,9 11 6 19 11 S 1009,7 - 0,0
14.07.2019 12:00:00 28,6 10,3 13 7 25 13 S 1010,3 - 0,0
14.07.2019 11:00:00 28,7 7,8 14 8 30 16 NNE 1010,6 20 0,0
14.07.2019 10:00:00 27,3 8,2 18 10 30 16 N 1011,1 - 0,0
14.07.2019 09:00:00 26,3 8,7 9 5 22 12 N 1011,7 - 0,0
14.07.2019 08:00:00 24,6 8,5 13 7 26 14 N 1011,6 20 0,0
14.07.2019 07:00:00 23,4 8,3 14 8 26 14 N 1011,6 - 0,0
14.07.2019 06:00:00 23,0 9,4 16 9 30 16 N 1011,4 - 0,0
14.07.2019 05:00:00 23,4 9,0 19 10 29 16 NNW 1011,7 20 0,0
14.07.2019 04:00:00 24,3 9,5 18 10 34 18 N 1012,0 - 0,0
14.07.2019 03:00:00 24,9 9,2 15 8 30 16 NNE 1011,9 - 0,0
14.07.2019 02:00:00 25,4 8,4 18 10 32 17 NNE 1011,7 - 0,0
14.07.2019 01:00:00 26,0 8,9 13 7 21 12 NE 1012,1 - 0,0
14.07.2019 00:00:00 26,9 9,3 16 9 31 17 NNE 1012,2 - 0,0
13.07.2019 23:00:00 26,9 15,9 13 7 20 11 NE 1012,5 - 0,0
13.07.2019 22:00:00 27,8 14,8 9 5 18 10 E 1012,1 - 0,0
13.07.2019 21:00:00 28,8 13,5 3 2 10 5 SSW 1011,7 - 0,0
13.07.2019 20:00:00 28,7 17,9 4 2 30 16 SSE 1011,1 20 0,0
13.07.2019 19:00:00 32,6 15,6 9 5 29 15 NNE 1010,6 - 0,0
13.07.2019 18:00:00 30,2 18,3 7 4 27 15 S 1011,2 - 0,0
13.07.2019 17:00:00 28,7 18,2 12 6 28 15 S 1011,6 20 0,0
13.07.2019 16:00:00 29,1 18,8 13 7 29 16 S 1012,1 - 0,0
13.07.2019 15:00:00 29,4 17,2 9 5 25 14 SSE 1012,9 - 0,0
13.07.2019 14:00:00 27,3 16,9 11 6 27 14 ESE 1013,6 - 0,0
13.07.2019 13:00:00 31,7 12,0 12 6 42 23 N 1014,0 - 0,0
13.07.2019 12:00:00 28,9 14,3 5 3 36 20 SSE 1014,5 - 0,0
13.07.2019 11:00:00 29,7 12,2 16 9 41 22 NNW 1014,8 20 0,0
13.07.2019 10:00:00 28,6 13,7 14 8 27 15 NNW 1015,0 - 0,0
13.07.2019 09:00:00 27,4 14,4 11 6 25 14 NNW 1015,1 - 0,0
13.07.2019 08:00:00 25,5 15,5 10 5 27 15 NW 1015,1 20 0,0
13.07.2019 07:00:00 24,3 15,8 12 7 27 15 NNW 1014,8 - 0,0
13.07.2019 06:00:00 24,0 15,8 6 4 16 9 WNW 1014,5 - 0,0
13.07.2019 05:00:00 24,5 15,4 5 3 31 17 WNW 1014,3 20 0,0
13.07.2019 04:00:00 25,0 15,9 9 5 22 12 N 1014,3 - 0,0
13.07.2019 03:00:00 25,5 15,5 9 5 29 15 NW 1014,4 - 0,0
13.07.2019 02:00:00 26,5 15,5 9 5 23 12 NW 1014,7 - 0,0
13.07.2019 01:00:00 27,5 14,8 4 2 35 19 NNW 1014,7 - 0,0
13.07.2019 00:00:00 28,2 15,8 18 10 32 17 W 1014,0 - 0,0
12.07.2019 23:00:00 28,9 14,7 13 7 29 16 NW 1013,9 - 0,0
12.07.2019 22:00:00 29,8 14,4 8 5 36 19 NW 1013,3 - 0,0
12.07.2019 21:00:00 31,0 14,2 13 7 32 17 NW 1012,7 - 0,0
12.07.2019 20:00:00 32,0 13,2 17 9 40 22 NW 1012,3 25 0,0
12.07.2019 19:00:00 33,6 13,6 13 7 37 20 NNW 1012,0 - 0,0
12.07.2019 18:00:00 34,7 13,5 12 7 45 24 NNW 1011,9 - 0,0
12.07.2019 17:00:00 34,8 13,6 14 8 35 19 NNW 1012,1 25 0,0
12.07.2019 16:00:00 34,8 14,7 13 7 38 20 WNW 1012,6 - 0,0
12.07.2019 15:00:00 33,9 12,8 10 5 32 18 NW 1013,2 - 0,0
12.07.2019 14:00:00 28,8 16,4 16 9 40 21 SSW 1013,9 - 0,0
12.07.2019 13:00:00 30,3 15,2 16 8 37 20 SSW 1014,1 - 0,0
12.07.2019 12:00:00 31,2 13,9 14 7 40 21 W 1014,6 - 0,0
12.07.2019 11:00:00 29,5 12,9 20 11 41 22 WNW 1014,7 25 0,0
12.07.2019 10:00:00 28,6 14,4 12 7 31 17 NW 1014,8 - 0,0
12.07.2019 09:00:00 26,0 14,8 11 6 28 15 W 1014,7 - 0,0
12.07.2019 08:00:00 25,7 13,9 12 6 29 16 WNW 1014,5 18 0,0
12.07.2019 07:00:00 24,1 13,0 20 11 27 15 WNW 1014,1 - 0,0
12.07.2019 06:00:00 25,5 12,7 19 10 29 16 NW 1013,7 - 0,0
12.07.2019 05:00:00 25,8 12,6 17 9 29 16 NW 1013,5 18 0,0
12.07.2019 04:00:00 25,6 13,1 19 10 29 16 NW 1013,5 - 0,0
12.07.2019 03:00:00 25,9 13,4 18 10 27 15 WNW 1013,5 - 0,0
12.07.2019 02:00:00 26,5 13,3 9 5 16 9 NW 1014,0 - 0,0
12.07.2019 01:00:00 26,4 15,1 5 3 13 7 SSW 1014,0 - 0,0
12.07.2019 00:00:00 27,1 12,7 4 2 22 12 ENE 1013,8 - 0,0
11.07.2019 23:00:00 28,2 14,8 10 5 29 15 N 1013,4 - 0,0
11.07.2019 22:00:00 29,4 13,6 11 6 25 13 WNW 1012,6 - 0,0
11.07.2019 21:00:00 30,4 13,2 8 5 28 15 WNW 1012,0 - 0,0
11.07.2019 20:00:00 31,1 12,0 15 8 30 16 WNW 1011,7 20 0,0
11.07.2019 19:00:00 27,9 19,7 9 5 28 15 SW 1011,5 - 0,0
11.07.2019 18:00:00 26,8 20,9 14 7 34 19 SSW 1011,7 - 0,0
11.07.2019 17:00:00 27,3 20,4 16 9 32 17 SSW 1012,0 20 0,0
11.07.2019 16:00:00 28,7 19,3 14 7 28 15 S 1012,0 - 0,0
11.07.2019 15:00:00 30,3 16,0 13 7 22 12 S 1012,5 - 0,0
11.07.2019 14:00:00 29,3 16,1 9 5 22 12 SSE 1013,0 20 0,0
11.07.2019 13:00:00 28,6 17,2 14 8 26 14 S 1013,4 - 0,0
11.07.2019 12:00:00 26,3 16,5 7 4 19 10 ESE 1013,7 - 0,0
11.07.2019 11:00:00 26,9 12,2 6 3 16 9 ESE 1013,7 - 0,0
11.07.2019 10:00:00 27,5 15,2 5 3 22 12 SE 1013,6 - 0,0
11.07.2019 09:00:00 27,0 11,1 6 3 26 14 N 1013,5 - 0,0
11.07.2019 08:00:00 25,0 11,2 16 8 33 18 NNW 1013,1 - 0,0
11.07.2019 07:00:00 24,0 10,3 24 13 39 21 NW 1012,8 - 0,0
11.07.2019 06:00:00 23,3 11,7 17 9 24 13 WNW 1012,6 - 0,0
11.07.2019 05:00:00 24,2 10,5 2 1 14 8 WNW 1012,7 20 0,0
11.07.2019 04:00:00 23,8 12,1 3 1 10 6 NE 1012,9 - 0,0
11.07.2019 03:00:00 25,2 11,7 9 5 19 11 NW 1013,1 - 0,0
11.07.2019 02:00:00 25,8 11,9 14 7 23 12 NW 1013,5 - 0,0
11.07.2019 01:00:00 26,2 12,3 8 4 25 13 NNW 1013,4 - 0,0
11.07.2019 00:00:00 27,1 12,3 11 6 24 13 NW 1013,5 - 0,0
10.07.2019 23:00:00 28,1 13,2 9 5 32 17 N 1013,4 - 0,0
10.07.2019 22:00:00 29,3 11,8 15 8 28 15 NNW 1012,3 - 0,0
10.07.2019 21:00:00 30,8 10,7 16 9 34 18 NNW 1011,7 - 0,0
10.07.2019 20:00:00 31,7 11,5 7 4 27 15 N 1011,1 20 0,0
10.07.2019 19:00:00 33,1 11,6 10 5 39 21 N 1010,7 - 0,0
10.07.2019 18:00:00 33,9 11,1 11 6 39 21 NW 1010,7 - 0,0
10.07.2019 17:00:00 33,6 10,2 16 9 40 22 NNW 1010,8 20 0,0
10.07.2019 16:00:00 33,1 9,2 16 9 41 22 NNW 1011,3 - 0,0
10.07.2019 15:00:00 32,4 9,8 15 8 39 21 NW 1011,6 - 0,0
10.07.2019 14:00:00 31,5 10,8 13 7 36 20 WNW 1012,2 20 0,0
10.07.2019 13:00:00 30,4 11,9 14 8 38 21 NW 1012,7 - 0,0
10.07.2019 12:00:00 28,9 10,5 13 7 36 19 NW 1013,1 - 0,0
10.07.2019 11:00:00 27,2 10,8 16 9 38 21 WNW 1013,3 - 0,0
10.07.2019 10:00:00 25,6 12,4 15 8 37 20 WNW 1013,3 - 0,0
10.07.2019 09:00:00 24,4 12,0 17 9 42 23 NW 1013,4 - 0,0
10.07.2019 08:00:00 22,9 12,5 21 11 39 21 NW 1012,7 15 0,0
10.07.2019 07:00:00 22,0 15,1 19 10 38 21 WNW 1012,5 - 0,0
10.07.2019 06:00:00 22,1 15,4 15 8 36 20 WNW 1012,5 - 0,0
10.07.2019 05:00:00 22,4 15,5 23 13 47 26 NW 1012,5 15 0,0
10.07.2019 04:00:00 22,5 16,8 15 8 35 19 WNW 1012,3 - 0,0

tt = Température de l'air
td = dewpoint
ff = Vitesse du vent
fx = gusts
dd = Direction du vent
ppp = reduced air pressure
vv = visibility
rr = Quantités de précipitations

stations d'obs. à proximité